Location: Larrial
(48.2758°N, 4.5331°W)
Time: 05:13:40
(UTC+00:00)

Cosmos 2341 Rocket - Pass Details

Date: 09 April 2020
Orbit: 968 x 1004 km, 82.9° (Epoch: 01 June)

Event Time Altitude Azimuth Distance (km) Brightness Sun altitude
Rises 20:43:04 0° 349° (N) 3,737 7.7 -16.4°
Reaches altitude 10° 20:45:37 10° 348° (NNW) 2,786 7.0 -16.8°
Maximum altitude 20:52:00 75° 265° (W) 1,042 4.2 -17.6°
Drops below altitude 10° 20:58:21 10° 181° (S) 2,771 6.0 -18.5°
Enters shadow 20:58:26 10° 181° (S) 2,799 6.1 -18.5°
